Home > Weather > Brantford > Past weeks

Flag for Canada Past Weather in Brantford, Ontario, Canada — Yesterday and Last 2 Weeks

Now
68 °F

Passing clouds.


Feels Like: 68 °F
Forecast: 62 / 89 °F
Wind: 5 mph from Southwest

Location: Hamilton Airport

Current Time: May 28, 2016 at 12:08:20 AM

Latest Report: May 27, 2016 at 11:00 PM


Visibility: 15 mi

Pressure: 30.01 "Hg

Humidity: 73%

Dew Point: 59 °F

Location of BrantfordLocation

Past Weather in Brantford — Graph

°F

Brantford Temperature Yesterday

Maximum temperature yesterday: 84 °F (at 5:00 PM)
Minimum temperature yesterday: 63 °F (at 1:00 AM)
Average temperature yesterday: 74 °F

High & Low Weather Summary for the Past Weeks

 TemperatureHumidityPressure
High84 °F (May 25, 5:00 PM)100% (May 13, 6:53 AM)30.30 "Hg (May 13, 6:53 AM)
Low32 °F (May 16, 5:00 AM)23% (May 24, 4:00 PM)29.50 "Hg (May 14, 11:00 AM)
Average59 °F62%30.01 "Hg
* Reported May 12 10:00 PM — May 27 10:00 PM, Brantford, Weather by CustomWeather, © 2016

Note: Actual official high and low records may vary slightly from our data, if they occured in-between our weather recording intervals... More about our weather records

Advertising

Brantford Weather History for the Previous 24 Hours

Scroll right to see more
 ConditionsComfort  
Time TempWeatherWind HumidityBarometerVisibility
10:00 PM
Fri, May 27
72 °FPassing clouds.5 mph69%30.01 "Hg15 mi
9:00 PM73 °FPartly sunny.7 mph65%29.99 "Hg15 mi
8:00 PM77 °FPartly sunny.8 mph61%29.97 "Hg15 mi
7:00 PM81 °FBroken clouds.13 mph54%29.97 "Hg15 mi
6:00 PM82 °FBroken clouds.14 mph51%29.96 "Hg15 mi
5:00 PM84 °FPartly sunny.14 mph48%29.97 "Hg15 mi
4:00 PM82 °FPartly sunny.15 mph55%29.98 "Hg15 mi
3:00 PM82 °FScattered clouds.14 mph58%29.97 "Hg15 mi
2:00 PM82 °FBroken clouds.16 mph62%29.98 "Hg15 mi
1:00 PM82 °FBroken clouds.16 mph58%29.98 "Hg15 mi
12:00 PM79 °FBroken clouds.12 mph65%29.98 "Hg15 mi
11:00 AM79 °FBroken clouds.10 mph65%29.98 "Hg15 mi
10:00 AM75 °FScattered clouds.12 mph78%29.97 "Hg12 mi
9:00 AM73 °FPassing clouds.9 mph78%29.98 "Hg15 mi
8:00 AM70 °FSunny.13 mph88%29.98 "Hg15 mi
7:00 AM68 °FPassing clouds.8 mph88%29.98 "Hg12 mi
6:00 AM64 °FPassing clouds.8 mph94%29.96 "Hg10 mi
5:00 AM66 °FPassing clouds.6 mph88%29.95 "Hg15 mi
4:00 AM66 °FPassing clouds.8 mph88%29.95 "Hg15 mi
3:00 AM66 °FPassing clouds.8 mph88%29.95 "Hg15 mi
2:00 AM64 °FPassing clouds.8 mph88%29.95 "Hg15 mi
1:00 AM63 °FPassing clouds.5 mph94%29.97 "Hg15 mi
12:00 AM64 °FPassing clouds.3 mph88%29.97 "Hg15 mi
Weather by CustomWeather, © 2016

See weather overviewHow to use our weather pages